NO1K Weather Reports


Display with metric or nautical units.
time (UTC)temp
F
wind
direction
speed
MPH
gust
MPH
rain 1hr
in
rain 24hr
in
rain mn
in
humidity
%
barometer
mb
20260510100020 48 278 0.0 1.0 0.00 0.05 0.00 90 1011.0
20260510094507 48 245 0.0 2.0 0.00 0.05 0.00 90 1011.0
20260510093017 48 32 0.0 0.0 0.00 0.05 0.00 88 1010.7
20260510091517 49 32 0.0 0.0 0.00 0.05 0.00 87 1010.4
20260510090020 51 30 0.0 2.0 0.00 0.05 0.00 86 1010.2
20260510084508 51 28 0.0 3.0 0.00 0.05 0.00 85 1010.1
20260510083010 52 60 0.0 3.0 0.00 0.05 0.00 85 1010.2
20260510081525 51 202 0.0 5.0 0.00 0.05 0.00 86 1009.5
20260510080023 51 322 0.0 4.0 0.00 0.05 0.00 86 1010.3
20260510074508 50 135 1.0 3.0 0.00 0.05 0.00 87 1010.8
20260510073014 50 88 0.0 3.0 0.00 0.05 0.00 87 1010.8
20260510071533 50 25 0.0 2.0 0.00 0.05 0.00 87 1010.9
20260510070022 50 37 0.0 2.0 0.00 0.05 0.00 86 1010.7
20260510063020 50 24 1.0 4.0 0.00 0.05 0.00 86 1010.9
20260510061534 50 336 0.0 3.0 0.00 0.05 0.00 86 1010.7
20260510060023 49 9 0.0 2.0 0.00 0.05 0.00 87 1010.2
20260510054510 49 178 0.0 1.0 0.00 0.05 0.00 86 1010.6
20260510051522 49 193 0.0 1.0 0.00 0.05 0.00 86 1010.6
20260510050023 49 43 0.0 3.0 0.00 0.05 0.00 86 1010.7
20260510044514 50 36 0.0 6.0 0.00 0.05 0.00 84 1010.4
20260510043022 50 34 0.0 5.0 0.00 0.05 0.00 85 1010.7
20260510041523 50 309 1.0 6.0 0.00 0.05 0.00 85 1010.6
20260510040026 50 46 1.0 5.0 0.00 0.05 0.00 85 1010.2
20260510034515 50 46 1.0 6.0 0.00 0.05 0.05 86 1010.3
20260510033020 50 117 1.0 2.0 0.00 0.05 0.05 85 1010.6
20260510031513 50 69 0.0 4.0 0.00 0.05 0.05 85 1010.5
20260510030016 50 75 0.0 6.0 0.00 0.05 0.05 85 1010.5
20260510024523 49 158 0.0 3.0 0.00 0.05 0.05 86 1010.5
20260510023022 49 29 0.0 4.0 0.00 0.05 0.05 86 1010.4
20260510021507 49 81 2.0 7.0 0.00 0.05 0.05 85 1010.6
20260510020012 49 75 1.0 6.0 0.00 0.05 0.05 86 1010.6
20260510014520 49 68 2.0 4.0 0.00 0.05 0.05 86 1010.6
20260510013020 49 319 0.0 5.0 0.00 0.05 0.05 86 1010.9
20260510003048 49 117 0.0 3.0 0.00 0.05 0.05 87 1010.9
20260510001511 49 14 0.0 2.0 0.00 0.05 0.05 87 1010.6
20260509233025 49 25 0.0 3.0 0.00 0.05 0.05 88 1010.2
20260509231507 49 39 0.0 2.0 0.00 0.05 0.05 88 1010.4
20260509230020 49 53 0.0 4.0 0.00 0.05 0.05 88 1010.5
20260509224523 49 60 0.0 3.0 0.00 0.05 0.05 87 1010.4
20260509223027 49 117 1.0 3.0 0.00 0.05 0.05 88 1010.4
20260509221510 49 34 0.0 4.0 0.00 0.05 0.05 88 1010.6
20260509220016 49 90 1.0 3.0 0.00 0.05 0.05 88 1010.6
20260509214521 49 269 0.0 4.0 0.00 0.05 0.05 89 1010.8
20260509213026 48 44 0.0 2.0 0.01 0.05 0.05 90 1011.0
20260509211514 48 316 0.0 2.0 0.01 0.05 0.05 89 1011.2
20260509210022 48 309 0.0 3.0 0.01 0.05 0.05 89 1011.2
20260509204504 48 48 1.0 3.0 0.01 0.05 0.05 89 1011.2
20260509203008 48 212 0.0 4.0 0.00 0.04 0.04 87 1011.4
20260509201517 49 89 0.0 2.0 0.00 0.04 0.04 86 1011.7
20260509200023 49 32 0.0 4.0 0.00 0.04 0.04 85 1011.7
20260509194510 50 34 0.0 3.0 0.00 0.04 0.04 84 1011.7
20260509193010 50 40 0.0 3.0 0.00 0.04 0.04 85 1011.7
20260509191515 50 295 0.0 2.0 0.00 0.04 0.04 85 1011.7
20260509183021 49 167 0.0 0.0 0.00 0.04 0.04 88 1012.0
20260509180023 48 47 0.0 3.0 0.01 0.04 0.04 88 1012.2
20260509174509 48 13 0.0 2.0 0.03 0.04 0.04 87 1012.1
20260509173018 49 22 0.0 4.0 0.03 0.04 0.04 86 1012.4
20260509171519 49 82 1.0 4.0 0.04 0.04 0.04 85 1012.7
20260509170022 50 44 1.0 5.0 0.03 0.03 0.03 82 1012.9
20260509164511 50 130 1.0 6.0 0.01 0.01 0.01 81 1013.0
20260509163022 50 319 1.0 6.0 0.01 0.01 0.01 79 1013.2
20260509161518 50 15 2.0 7.0 0.00 0.00 0.00 75 1013.4
20260509160023 50 226 1.0 3.0 0.00 0.00 0.00 74 1013.5
20260509154513 50 37 1.0 4.0 0.00 0.00 0.00 74 1013.6
20260509153017 50 39 0.0 5.0 0.00 0.00 0.00 71 1013.8
20260509151524 50 113 0.0 5.0 0.00 0.00 0.00 67 1013.9
20260509150024 51 49 1.0 6.0 0.00 0.00 0.00 60 1013.9
20260509144525 51 51 1.0 6.0 0.00 0.00 0.00 56 1013.8
20260509143017 52 307 1.0 4.0 0.00 0.00 0.00 54 1013.6
20260509140026 52 334 1.0 7.0 0.00 0.00 0.00 54 1013.4
20260509134515 52 337 2.0 7.0 0.00 0.00 0.00 50 1013.4
20260509133022 52 46 0.0 6.0 0.00 0.00 0.00 50 1013.6
20260509131523 51 55 1.0 4.0 0.00 0.00 0.00 51 1013.5
20260509130028 50 307 2.0 4.0 0.00 0.00 0.00 55 1013.6
20260509124515 47 24 0.0 6.0 0.00 0.00 0.00 60 1014.0
20260509123022 45 236 1.0 7.0 0.00 0.00 0.00 63 1014.0
20260509121503 44 90 0.0 3.0 0.00 0.00 0.00 64 1014.3
20260509120004 42 325 0.0 3.0 0.00 0.00 0.00 70 1014.4
20260509114505 40 23 1.0 6.0 0.00 0.00 0.00 73 1014.5
20260509113005 37 27 0.0 1.0 0.00 0.00 0.00 80 1014.6
20260509111504 35 321 0.0 2.0 0.00 0.00 0.00 84 1014.7
20260509110004 33 43 0.0 1.0 0.00 0.00 0.00 87 1014.6
20260509104504 32 44 0.0 0.0 0.00 0.00 0.00 89 1014.5
20260509103006 31 44 0.0 0.0 0.00 0.00 0.00 89 1014.4
20260509101509 31 44 0.0 0.0 0.00 0.00 0.00 88 1014.5